Hovedside
METAR-TAF:

METAR-TAF

Lufthavner :

Sveg, Sverige

Sveg lufthavn

breddegrad: 62-02-52N, lengdegrad: 014-25-22E, høyde over havet: 359 m

Gjeldene værobservasjon

Denne rapporten ble laget for 32 minutter siden, klokken 18:50 UTC
Vind 10 kt fra Øst-nordøst
Temperatur 18°C
Luftfuktighet 59%
Trykk 1015 hPa
Sikt 10 km eller mer

METAR: ESND 271850Z AUTO 07010KT 9999 NCD 18/10 Q1015

Tid: 21:22 (19:22 UTC)


TAF: fraværende

Værobservasjoner og værvarsel for over 4000 flyplasser (METAR- og TAF-rapporter).

Tilgjengelige stasjoner er representert av de røde og gule prikkene på kartet.

Hold musepekeren over prikken for å se navnet på stasjonen.

Klikk så for å se værobservasjoner og -varsler.

For å forandre kartet kan du klikke på den grønne knappen med svart kryss for å zoome inn, på den grønne knappen med strek for å zoome ut, eller på de grønne pilene for å se tilstøtende kart.


METAR-TAF: